Temp
-12 -12 -12 -12 -12 -11 -11 -11 -11 -11 -10 -10 -10 -10 -10 -9 -9 -9 -9 -9 -9 -9 -10 -10 -10 -10 -9 -10 -10 -9 -8 -7 -8 -8 -9 -11 -11 -12 -11 -11 -11 -12 -12 -11 -10
-12 -12 -12 -12 -12 -12 -11 -11 -11 -11 -11 -10 -10 -10 -10 -10 -9 -9 -9 -9 -10 -10 -10 -10 -10 -10 -10 -10 -10 -9 -8 -8 -9 -10 -10 -11 -11 -12 -11 -11 -11 -10 -11 -11 -10
-13 -13 -12 -12 -12 -12 -12 -12 -11 -11 -11 -11 -11 -11 -10 -10 -10 -10 -10 -10 -10 -10 -10 -10 -11 -10 -10 -10 -10 -10 -8 -9 -9 -10 -10 -10 -11 -12 -12 -11 -11 -11 -11 -11 -10
-13 -13 -13 -13 -13 -12 -12 -12 -12 -12 -11 -11 -11 -11 -10 -11 -11 -10 -10 -11 -11 -10 -11 -11 -11 -11 -11 -11 -12 -10 -10 -9 -9 -9 -9 -9 -10 -11 -12 -10 -12 -12 -11 -11 -10
-13 -13 -13 -13 -13 -13 -12 -12 -12 -12 -11 -11 -11 -11 -11 -12 -11 -11 -11 -11 -11 -11 -11 -11 -12 -12 -11 -12 -12 -10 -11 -11 -10 -9 -9 -10 -10 -11 -11 -12 -12 -12 -12 -11 -10
-13 -13 -13 -13 -13 -13 -13 -13 -12 -12 -12 -12 -11 -12 -12 -12 -13 -12 -12 -12 -12 -12 -12 -12 -12 -12 -11 -11 -11 -12 -12 -11 -11 -9 -9 -10 -9 -12 -8 -12 -12 -13 -12 -12 -11
-14 -14 -14 -13 -13 -13 -13 -13 -13 -13 -12 -12 -12 -12 -13 -13 -12 -12 -12 -12 -11 -12 -12 -13 -13 -13 -12 -11 -12 -13 -12 -12 -10 -10 -10 -11 -11 -9 -9 -12 -12 -13 -13 -13 -12
-14 -13 -14 -13 -13 -13 -13 -13 -13 -14 -13 -13 -12 -13 -13 -13 -13 -13 -12 -12 -13 -13 -12 -13 -14 -13 -13 -13 -13 -13 -13 -11 -10 -11 -11 -13 -11 -9 -11 -12 -13 -13 -13 -13 -13
-14 -13 -13 -13 -14 -14 -14 -14 -14 -14 -14 -14 -13 -14 -13 -13 -13 -13 -13 -13 -13 -13 -13 -13 -13 -13 -13 -13 -13 -12 -12 -12 -11 -12 -12 -13 -12 -9 -12 -13 -13 -13 -13 -13 -13
-14 -14 -14 -14 -14 -14 -15 -15 -15 -15 -15 -14 -14 -14 -13 -13 -14 -14 -13 -13 -13 -13 -13 -14 -13 -13 -13 -14 -14 -13 -15 -14 -14 -11 -13 -13 -13 -11 -12 -13 -13 -14 -13 -13 -14
-14 -14 -14 -14 -14 -14 -15 -15 -15 -16 -15 -15 -14 -14 -14 -14 -14 -14 -14 -14 -15 -14 -14 -13 -13 -14 -13 -15 -18 -17 -16 -16 -15 -14 -14 -14 -14 -12 -14 -14 -13 -13 -14 -14 -14
-14 -14 -15 -14 -14 -15 -15 -15 -15 -16 -16 -15 -15 -15 -15 -15 -15 -15 -15 -14 -14 -14 -14 -14 -15 -18 -18 -19 -21 -20 -20 -19 -18 -17 -16 -17 -17 -14 -14 -15 -14 -14 -14 -14 -14
-14 -14 -14 -15 -15 -15 -15 -16 -16 -16 -17 -16 -15 -16 -16 -15 -15 -15 -15 -14 -15 -15 -16 -17 -20 -21 -22 -22 -22 -22 -21 -21 -21 -19 -20 -20 -19 -16 -16 -15 -15 -14 -14 -14 -14
-15 -15 -15 -15 -15 -15 -15 -16 -17 -17 -17 -16 -16 -16 -15 -15 -15 -16 -15 -15 -16 -18 -20 -21 -22 -22 -22 -22 -23 -21 -23 -23 -23 -22 -23 -22 -20 -18 -16 -16 -16 -15 -14 -14 -14
-15 -15 -15 -15 -15 -15 -16 -17 -17 -18 -17 -17 -16 -16 -16 -16 -16 -16 -16 -17 -19 -21 -21 -22 -22 -23 -22 -22 -22 -22 -24 -24 -24 -24 -22 -22 -20 -18 -18 -17 -16 -15 -15 -15 -15
-16 -16 -15 -16 -15 -16 -17 -18 -19 -18 -18 -18 -17 -17 -17 -17 -17 -16 -18 -21 -22 -22 -21 -22 -23 -22 -22 -22 -22 -24 -24 -24 -24 -23 -22 -22 -21 -18 -18 -17 -17 -16 -16 -16 -15
-16 -16 -17 -17 -17 -18 -18 -19 -19 -18 -19 -18 -18 -18 -17 -17 -18 -20 -22 -22 -21 -21 -22 -22 -22 -22 -22 -22 -23 -23 -24 -24 -24 -22 -22 -21 -20 -18 -18 -17 -17 -16 -16 -16 -16
-17 -18 -18 -18 -18 -19 -20 -19 -20 -19 -19 -18 -18 -18 -17 -18 -21 -23 -23 -22 -22 -22 -21 -21 -21 -22 -22 -22 -22 -24 -23 -22 -21 -21 -21 -20 -20 -18 -17 -18 -17 -17 -17 -16 -16
-18 -19 -19 -19 -19 -20 -20 -20 -19 -19 -19 -19 -18 -19 -20 -21 -23 -23 -23 -22 -22 -22 -21 -21 -21 -22 -22 -22 -22 -22 -22 -22 -20 -21 -20 -20 -19 -19 -18 -18 -18 -17 -17 -16 -16
-19 -20 -20 -20 -21 -21 -20 -20 -20 -19 -19 -18 -19 -20 -21 -23 -23 -23 -23 -22 -22 -22 -22 -21 -21 -22 -21 -22 -22 -22 -21 -21 -21 -20 -20 -20 -20 -19 -18 -18 -17 -16 -16 -16 -16
-21 -21 -22 -22 -21 -21 -20 -20 -20 -19 -19 -19 -20 -21 -22 -23 -23 -23 -22 -22 -22 -22 -22 -22 -21 -22 -22 -21 -22 -21 -21 -21 -21 -21 -20 -20 -19 -18 -18 -17 -17 -16 -16 -16 -16
-22 -22 -22 -22 -21 -21 -21 -20 -20 -20 -20 -21 -21 -22 -23 -24 -23 -23 -22 -22 -22 -22 -22 -22 -22 -21 -21 -21 -21 -21 -22 -21 -21 -20 -19 -19 -18 -18 -17 -17 -16 -17 -16 -16 -17
-24 -23 -22 -22 -22 -21 -21 -20 -20 -20 -21 -21 -22 -22 -23 -23 -23 -23 -22 -22 -22 -22 -22 -22 -22 -21 -22 -22 -21 -21 -21 -21 -20 -20 -20 -19 -18 -18 -18 -17 -17 -16 -17 -17 -17
-24 -24 -23 -23 -22 -22 -21 -21 -21 -21 -22 -22 -22 -23 -23 -23 -23 -23 -22 -22 -22 -22 -22 -21 -21 -21 -21 -21 -21 -21 -21 -21 -20 -20 -20 -19 -18 -18 -17 -17 -18 -17 -17 -17 -17
-24 -24 -23 -23 -22 -22 -21 -21 -21 -22 -22 -22 -22 -23 -23 -23 -23 -23 -23 -23 -22 -22 -22 -22 -21 -22 -21 -21 -21 -21 -21 -20 -20 -20 -21 -20 -19 -19 -19 -18 -18 -18 -18 -18 -18
-25 -24 -23 -23 -22 -22 -21 -21 -21 -22 -22 -22 -22 -22 -22 -22 -22 -22 -23 -24 -24 -24 -23 -22 -22 -21 -22 -21 -21 -21 -20 -21 -20 -20 -20 -20 -20 -19 -19 -19 -18 -18 -18 -18 -18
-25 -24 -24 -23 -23 -22 -22 -22 -22 -22 -22 -22 -23 -22 -22 -22 -22 -22 -23 -24 -24 -24 -23 -22 -22 -21 -21 -22 -21 -21 -21 -21 -20 -21 -20 -20 -20 -20 -20 -20 -20 -19 -19 -18 -18
Height
5779 5780 5780 5781 5781 5782 5782 5783 5783 5783 5784 5784 5785 5785 5784 5784 5784 5784 5784 5785 5784 5783 5783 5783 5781 5779 5780 5781 5781 5782 5785 5786 5788 5792 5798 5803 5803 5804 5804 5803 5802 5802 5801 5804 5806
5770 5771 5772 5773 5774 5774 5775 5775 5775 5775 5776 5776 5776 5776 5776 5775 5775 5775 5775 5775 5775 5774 5773 5772 5771 5771 5771 5771 5769 5770 5775 5776 5779 5784 5787 5791 5793 5795 5793 5794 5795 5794 5794 5794 5795
5761 5762 5763 5764 5765 5766 5767 5767 5767 5767 5767 5768 5768 5767 5767 5766 5766 5767 5766 5764 5763 5763 5762 5761 5760 5760 5759 5759 5758 5761 5767 5766 5768 5771 5775 5777 5781 5785 5782 5783 5785 5786 5787 5787 5788
5753 5753 5754 5755 5756 5757 5758 5758 5758 5758 5759 5759 5759 5759 5757 5755 5756 5757 5755 5755 5753 5753 5751 5749 5748 5747 5747 5746 5746 5748 5752 5752 5755 5758 5763 5766 5769 5773 5774 5777 5775 5775 5777 5778 5781
5744 5744 5745 5746 5747 5748 5748 5748 5748 5748 5749 5750 5750 5749 5748 5746 5745 5745 5744 5743 5742 5740 5739 5738 5737 5735 5735 5735 5734 5734 5738 5741 5741 5748 5751 5749 5754 5756 5762 5768 5768 5765 5765 5767 5772
5734 5735 5735 5736 5736 5737 5738 5739 5738 5738 5740 5741 5740 5738 5737 5736 5735 5733 5734 5732 5730 5728 5726 5725 5723 5721 5721 5723 5721 5723 5721 5727 5729 5741 5739 5734 5738 5735 5754 5754 5756 5758 5756 5758 5761
5724 5725 5726 5726 5726 5727 5728 5729 5728 5728 5730 5730 5729 5726 5725 5726 5725 5724 5723 5722 5719 5716 5715 5712 5709 5708 5707 5707 5707 5703 5700 5707 5719 5730 5729 5714 5712 5723 5745 5739 5743 5747 5748 5748 5753
5715 5715 5716 5716 5716 5717 5718 5719 5718 5717 5719 5718 5718 5717 5715 5715 5713 5712 5708 5709 5707 5702 5698 5697 5696 5694 5692 5688 5686 5682 5678 5688 5716 5704 5712 5698 5697 5726 5725 5723 5731 5736 5738 5739 5743
5703 5704 5705 5705 5705 5706 5707 5708 5707 5707 5709 5707 5708 5706 5705 5704 5702 5698 5696 5696 5695 5691 5686 5681 5678 5677 5675 5664 5662 5669 5655 5657 5680 5688 5684 5675 5678 5715 5706 5706 5714 5724 5728 5731 5734
5693 5693 5693 5693 5694 5696 5695 5697 5697 5696 5697 5696 5697 5696 5695 5693 5690 5686 5684 5682 5679 5675 5669 5662 5661 5656 5652 5638 5631 5641 5623 5632 5639 5679 5660 5656 5656 5689 5682 5689 5699 5708 5715 5720 5724
5681 5681 5683 5683 5686 5686 5687 5687 5688 5687 5687 5687 5687 5684 5684 5684 5679 5675 5672 5668 5664 5659 5651 5640 5636 5625 5621 5612 5600 5597 5597 5592 5611 5634 5637 5629 5635 5659 5662 5669 5681 5691 5700 5708 5715
5670 5672 5673 5674 5676 5677 5676 5676 5676 5677 5677 5677 5678 5677 5675 5675 5669 5665 5661 5657 5650 5643 5633 5623 5613 5599 5592 5588 5578 5570 5566 5569 5581 5600 5612 5606 5613 5635 5643 5651 5665 5677 5687 5697 5704
5657 5658 5662 5665 5667 5668 5667 5667 5665 5667 5668 5669 5670 5668 5665 5664 5658 5649 5645 5641 5630 5621 5609 5598 5600 5585 5579 5576 5569 5563 5556 5553 5555 5577 5584 5587 5598 5617 5628 5638 5649 5658 5669 5678 5687
5645 5648 5650 5653 5659 5656 5657 5658 5656 5657 5658 5661 5660 5657 5653 5650 5644 5633 5627 5622 5611 5604 5595 5590 5580 5575 5572 5567 5558 5552 5545 5537 5541 5556 5565 5580 5588 5600 5615 5626 5635 5645 5658 5667 5675
5633 5636 5638 5642 5645 5646 5648 5648 5647 5648 5649 5651 5647 5643 5639 5637 5632 5623 5614 5608 5600 5595 5589 5584 5576 5568 5564 5558 5550 5543 5533 5530 5536 5548 5564 5571 5579 5595 5604 5614 5626 5639 5650 5658 5663
5622 5625 5625 5631 5635 5636 5637 5639 5641 5643 5641 5641 5637 5633 5629 5623 5616 5610 5602 5598 5594 5588 5583 5581 5574 5565 5560 5555 5543 5534 5530 5531 5534 5545 5550 5564 5576 5590 5598 5614 5623 5633 5642 5650 5651
5612 5616 5616 5621 5627 5628 5629 5632 5634 5634 5634 5632 5630 5626 5621 5612 5604 5598 5593 5590 5585 5583 5580 5577 5573 5563 5554 5548 5539 5532 5531 5532 5539 5546 5555 5568 5573 5589 5600 5609 5617 5627 5634 5637 5641
5603 5606 5607 5613 5618 5620 5622 5625 5626 5626 5625 5624 5622 5616 5611 5604 5595 5592 5590 5586 5582 5579 5577 5571 5572 5562 5554 5549 5545 5542 5540 5544 5549 5554 5560 5567 5575 5589 5595 5600 5609 5615 5617 5624 5618
5595 5597 5601 5606 5609 5613 5617 5619 5619 5620 5619 5615 5612 5608 5602 5594 5592 5591 5588 5583 5579 5578 5574 5568 5569 5562 5555 5552 5550 5551 5551 5554 5548 5556 5563 5569 5576 5580 5587 5593 5599 5603 5610 5613 5624
5587 5591 5595 5599 5603 5606 5610 5612 5613 5612 5611 5608 5606 5602 5595 5590 5590 5588 5584 5582 5579 5574 5570 5568 5563 5560 5552 5553 5554 5556 5556 5557 5554 5560 5563 5568 5572 5576 5583 5589 5596 5603 5608 5611 5619
5581 5585 5589 5594 5597 5600 5603 5605 5605 5604 5604 5602 5599 5594 5590 5588 5585 5584 5583 5581 5577 5574 5570 5566 5562 5559 5557 5553 5555 5556 5557 5558 5559 5561 5564 5568 5571 5576 5580 5584 5590 5595 5599 5604 5609
5575 5579 5584 5588 5592 5595 5598 5598 5600 5599 5598 5596 5594 5591 5586 5583 5582 5582 5581 5578 5577 5573 5570 5566 5563 5559 5557 5556 5559 5558 5557 5558 5559 5562 5563 5565 5572 5574 5577 5581 5584 5586 5591 5596 5601
5569 5574 5579 5583 5587 5591 5592 5594 5594 5595 5593 5592 5590 5585 5581 5581 5581 5579 5578 5576 5574 5573 5570 5567 5563 5561 5560 5560 5559 5558 5559 5560 5561 5563 5564 5566 5570 5569 5575 5579 5581 5572 5586 5594 5598
5565 5571 5575 5578 5583 5585 5587 5589 5589 5589 5589 5589 5585 5581 5580 5579 5578 5577 5574 5572 5570 5568 5566 5564 5562 5561 5562 5560 5557 5556 5556 5558 5558 5561 5563 5565 5566 5571 5574 5573 5579 5582 5586 5591 5594
5560 5566 5571 5575 5577 5580 5581 5584 5585 5586 5587 5583 5582 5581 5580 5578 5577 5574 5570 5567 5564 5562 5561 5562 5563 5562 5561 5559 5556 5556 5557 5559 5560 5561 5563 5565 5565 5567 5568 5572 5573 5581 5582 5585 5590
5556 5561 5566 5569 5571 5575 5578 5580 5581 5582 5582 5580 5580 5579 5578 5576 5575 5572 5568 5566 5561 5559 5557 5559 5561 5562 5561 5559 5557 5555 5557 5557 5559 5561 5561 5565 5566 5569 5568 5569 5572 5575 5572 5577 5584
5551 5555 5560 5563 5567 5571 5573 5576 5577 5577 5579 5578 5578 5577 5576 5574 5572 5569 5566 5563 5559 5556 5552 5554 5557 5559 5559 5558 5557 5556 5557 5557 5558 5560 5562 5563 5565 5567 5567 5568 5570 5574 5574 5577 5580
Wind_Speed
42 41 37 34 33 32 31 31 31 31 32 33 33 35 35 37 41 42 43 44 44 44 43 45 46 48 47 48 50 51 49 46 46 46 40 30 33 32 39 42 44 43 48 48 47
42 42 43 40 37 34 34 34 35 34 34 34 36 38 39 41 42 44 45 44 44 44 46 46 47 48 49 49 51 52 52 53 50 45 44 40 39 35 41 44 47 50 49 50 51
40 41 42 41 41 40 39 40 38 37 38 38 36 36 38 39 44 46 45 47 48 49 49 49 49 50 51 52 53 54 54 52 52 50 47 47 45 37 46 47 48 50 51 52 52
40 40 42 44 43 42 42 42 41 41 41 41 41 41 41 42 43 44 44 45 46 47 48 51 52 53 54 54 52 57 56 57 56 54 51 50 50 47 48 49 52 53 56 57 56
41 42 42 44 45 43 43 44 44 42 42 43 44 44 42 41 42 45 45 46 47 48 49 49 50 52 54 56 56 60 57 54 58 57 56 58 56 57 52 50 55 57 58 60 58
43 41 43 46 47 46 46 47 47 46 44 44 46 47 45 45 43 44 46 46 44 46 49 51 53 55 58 58 61 59 61 62 59 57 58 62 60 63 50 51 52 57 59 60 60
44 43 44 44 44 48 47 47 49 46 42 45 47 44 42 42 44 43 42 46 49 49 49 51 54 57 60 62 62 64 67 65 64 59 58 66 69 65 50 57 55 55 58 61 60
50 47 45 47 48 50 48 45 47 45 44 43 44 40 41 41 43 45 45 46 48 51 55 56 56 60 63 65 68 72 74 73 62 64 60 68 73 61 61 63 59 58 58 59 57
48 50 54 52 50 48 48 46 43 43 42 40 39 39 40 41 43 46 48 49 52 55 58 62 64 67 71 79 78 77 85 84 73 67 68 73 74 60 64 64 63 62 62 58 56
48 48 51 51 48 48 44 41 40 39 37 38 37 39 40 43 48 49 51 53 56 59 63 70 74 78 81 84 87 84 88 87 87 76 77 77 79 64 70 65 64 62 62 60 57
43 47 50 48 47 44 40 39 38 37 35 36 38 39 41 45 49 50 54 57 60 65 71 77 81 83 89 85 81 84 87 89 87 79 81 84 81 69 68 63 63 61 62 62 58
47 47 49 48 48 41 39 38 38 37 36 36 37 40 41 42 45 50 54 58 64 68 74 79 77 73 75 71 59 59 66 73 77 77 76 85 77 72 69 65 59 56 57 57 55
44 46 49 49 47 42 39 39 37 36 34 37 38 36 40 44 48 55 58 61 67 70 70 69 59 57 47 32 39 40 40 48 65 63 67 67 77 72 65 61 61 60 57 55 54
43 50 48 51 51 45 41 39 35 33 32 33 33 39 42 45 49 57 62 64 63 53 50 51 37 38 34 41 44 43 36 38 53 56 52 50 46 65 66 57 55 52 53 49 51
41 45 47 50 54 46 39 37 29 27 30 32 35 38 43 47 52 58 62 53 41 37 28 14 22 32 31 33 40 38 32 29 37 42 36 46 50 41 40 45 51 44 39 40 47
41 45 39 44 48 41 32 24 19 22 26 28 33 37 42 47 53 57 45 28 25 25 16 17 26 32 29 26 28 23 15 14 22 35 46 41 42 43 38 30 35 36 33 34 41
41 42 33 37 40 27 19 15 18 19 24 27 31 35 41 46 45 35 25 25 27 15 17 22 24 31 23 19 9 9 13 19 27 33 31 29 39 34 32 33 26 33 34 40 46
37 35 31 31 25 19 11 13 13 18 21 26 29 36 39 38 27 20 25 23 21 22 20 27 20 15 13 15 3 12 17 19 18 18 21 25 20 33 38 31 34 38 49 49 61
35 30 26 23 18 11 12 11 13 17 20 24 29 31 31 25 15 13 17 19 21 23 23 25 15 17 19 14 4 14 9 16 8 16 16 18 24 27 33 37 34 41 44 51 55
33 27 22 18 13 12 11 10 12 15 18 22 25 26 24 14 12 15 18 20 18 24 26 21 23 22 5 9 10 7 8 9 9 3 13 15 17 26 25 29 31 34 37 44 43
27 22 18 15 13 11 9 9 11 14 17 19 21 22 20 9 7 13 18 18 17 19 25 19 20 18 5 9 8 15 11 7 7 6 9 11 16 21 24 26 29 28 30 40 46
25 20 17 15 13 11 10 7 9 11 12 13 15 18 14 9 5 9 10 18 13 16 15 18 14 16 12 8 5 10 15 19 17 10 2 14 18 25 25 25 24 32 33 29 44
25 21 19 16 15 12 9 8 8 8 6 7 11 14 14 10 9 9 12 16 18 16 13 13 16 14 7 17 6 15 12 14 13 11 7 16 20 18 31 34 33 27 37 33 38
26 21 19 16 15 13 11 8 6 4 1 5 8 12 12 13 11 9 12 15 17 18 14 16 14 16 10 16 13 7 21 15 12 12 6 13 9 8 18 22 29 35 27 29 34
24 22 20 16 17 15 11 8 7 6 2 3 6 8 9 11 14 17 18 18 21 20 17 13 12 12 4 10 8 11 17 16 15 12 7 10 9 7 3 14 12 19 40 37 28
25 22 21 18 18 15 12 10 9 6 2 3 3 5 9 12 15 18 15 11 13 14 10 6 7 4 3 5 10 11 16 19 20 17 22 16 11 3 9 19 18 25 21 27 23
26 22 21 20 19 18 16 12 12 8 6 3 1 3 6 10 14 17 12 14 16 24 10 7 7 6 7 6 12 8 8 17 19 21 22 23 18 16 9 16 19 18 15 23 25
Wind_Direction
267 268 267 268 270 271 272 273 271 269 267 266 268 269 267 269 268 268 270 271 270 268 268 269 269 268 268 268 268 266 262 262 261 263 268 253 246 243 248 246 236 244 252 260 265
269 267 267 266 268 267 268 268 267 266 263 264 267 269 269 271 271 270 268 270 270 270 270 270 268 267 268 267 267 266 267 266 265 264 264 258 247 228 241 247 249 245 248 255 263
271 268 268 268 267 267 266 265 265 266 268 270 273 275 274 274 272 272 272 273 274 274 274 272 270 269 269 268 268 267 272 268 264 260 257 256 250 235 237 242 246 250 252 254 259
273 270 269 266 266 266 266 267 267 268 269 273 276 279 280 276 276 275 273 273 273 273 274 274 273 273 270 268 266 266 266 265 262 259 257 256 253 243 239 246 241 245 253 255 260
274 272 270 266 264 266 266 266 270 273 274 277 279 278 276 274 274 273 272 273 274 273 272 273 273 271 272 272 270 272 268 263 262 259 258 255 253 252 240 241 240 243 249 255 259
276 271 269 269 268 267 269 268 270 273 276 277 276 273 270 270 270 270 270 272 272 274 276 277 278 277 276 275 274 271 267 266 260 263 262 259 254 245 251 233 235 241 245 252 259
274 270 271 268 271 269 269 270 272 271 273 271 269 269 270 272 272 271 272 272 273 276 277 275 273 273 274 274 274 271 268 264 267 267 261 259 251 252 251 239 232 235 242 248 254
271 267 272 271 269 273 273 273 273 270 269 270 269 270 272 274 276 277 276 277 281 282 280 280 281 281 281 276 273 272 270 268 269 262 258 256 258 254 251 244 238 234 235 240 249
272 270 268 267 269 270 268 268 269 269 269 268 267 273 276 279 283 282 281 282 282 284 285 285 283 282 282 280 274 272 271 268 260 257 254 253 257 251 250 245 241 237 239 239 242
275 271 267 266 268 266 264 265 268 272 271 269 273 279 281 286 287 285 286 287 287 288 290 290 288 285 282 279 275 268 264 260 259 253 251 249 251 245 248 244 241 238 237 238 239
280 272 268 268 267 264 266 266 270 274 272 272 277 284 283 285 287 290 292 294 296 294 293 292 291 286 281 279 278 272 263 256 251 244 242 243 243 240 241 242 241 237 234 233 234
284 270 269 267 264 264 265 267 272 273 275 276 278 280 282 287 291 291 290 292 294 294 291 290 288 288 286 286 287 276 270 264 255 243 233 240 240 236 236 236 237 238 237 235 234
264 262 266 267 264 262 265 267 269 269 269 272 278 284 288 292 291 293 297 300 300 297 294 291 293 288 288 289 294 282 294 273 255 238 228 240 241 236 232 235 233 233 231 229 230
269 263 266 264 265 262 265 264 263 263 270 277 286 287 292 298 302 305 304 304 299 297 294 297 286 276 273 287 291 289 285 275 250 228 228 227 235 234 234 229 231 234 234 229 232
269 267 273 269 266 263 264 263 260 267 281 292 297 300 303 306 306 307 306 302 298 300 306 310 289 292 293 295 287 296 273 262 244 221 222 222 227 215 222 223 228 230 233 231 233
264 264 267 281 266 265 262 255 265 275 291 299 302 306 310 311 309 308 302 294 299 305 279 306 306 296 298 292 300 279 240 232 197 199 219 215 213 212 210 214 216 224 223 225 226
262 270 267 271 268 257 244 255 270 287 298 304 307 309 311 311 308 301 304 308 308 291 288 301 306 312 300 301 345 249 197 197 196 200 218 214 213 192 202 216 210 213 217 219 217
262 256 253 261 250 230 239 254 278 292 299 303 310 315 314 313 307 289 303 316 324 320 302 300 318 307 289 330 320 164 160 154 163 205 216 210 218 195 203 216 209 210 214 216 219
251 245 245 230 213 216 239 259 284 293 303 315 320 320 320 320 309 289 321 322 307 325 300 294 310 311 299 306 209 140 167 189 44 168 200 210 199 200 208 218 213 220 220 225 228
236 229 211 199 198 213 238 260 282 302 314 321 324 328 332 321 302 299 314 326 306 309 328 315 308 326 262 169 158 183 177 230 263 186 191 213 216 217 224 222 221 226 231 230 229
220 207 198 192 201 214 238 262 297 315 320 330 333 338 342 321 314 325 320 333 321 314 314 331 322 325 315 196 169 181 189 230 244 232 224 202 209 212 214 214 222 224 228 231 229
199 191 190 191 210 215 232 271 300 311 324 337 341 346 351 332 324 329 321 324 332 347 343 348 340 343 330 85 193 183 197 213 224 179 292 132 186 193 202 206 211 219 222 227 223
204 191 190 195 208 218 234 261 288 295 340 352 0 8 8 357 308 293 300 308 309 312 342 343 1 356 328 344 271 205 207 212 231 218 196 150 174 187 195 204 211 187 203 215 223
200 197 193 199 210 213 225 245 257 272 22 336 15 29 21 1 344 325 308 304 300 306 323 347 347 346 325 320 298 251 200 200 223 230 155 172 167 189 184 210 208 219 206 213 233
199 201 197 206 211 216 225 235 222 190 208 71 53 47 31 17 354 346 333 317 307 302 305 318 317 351 319 357 307 222 216 216 221 218 234 189 236 216 235 207 219 226 229 232 223
203 205 204 210 211 215 222 226 221 219 167 128 70 29 11 1 356 350 353 353 337 336 314 269 257 318 264 310 52 235 227 235 231 231 233 214 228 209 251 259 227 230 196 210 219
211 205 205 208 208 218 226 225 219 219 214 191 195 339 350 348 351 347 351 337 339 348 331 191 209 232 269 317 111 201 219 238 239 238 234 230 238 240 305 268 275 248 257 216 239